TimeMDT,TemperatureF,Dew PointF,Humidity,Sea Level PressureIn,VisibilityMPH,Wind Direction,Wind SpeedMPH,Gust SpeedMPH,PrecipitationIn,Events,Conditions,WindDirDegrees,DateUTC
12:56 AM,57.9,55.9,93,30.04,-9999.0,NNE,12.7,-,N/A,,Unknown,30,2013-09-15 06:56:00
1:56 AM,57.0,52.0,83,30.05,-9999.0,NE,15.0,-,N/A,,Unknown,40,2013-09-15 07:56:00
2:56 AM,55.9,52.0,87,30.06,-9999.0,ENE,13.8,-,N/A,,Unknown,60,2013-09-15 08:56:00
3:56 AM,52.0,48.0,86,30.10,-9999.0,ENE,8.1,-,N/A,,Unknown,60,2013-09-15 09:56:00
4:56 AM,53.1,50.0,89,30.13,-9999.0,NE,6.9,-,N/A,,Unknown,50,2013-09-15 10:56:00
5:56 AM,51.1,48.9,92,30.15,-9999.0,NE,8.1,-,N/A,,Unknown,50,2013-09-15 11:56:00
6:56 AM,52.0,50.0,93,30.17,-9999.0,NE,8.1,-,N/A,,Unknown,40,2013-09-15 12:56:00
7:56 AM,52.0,50.0,93,30.18,-9999.0,ENE,10.4,-,N/A,,Unknown,70,2013-09-15 13:56:00
8:56 AM,52.0,50.0,93,30.20,-9999.0,ENE,8.1,-,N/A,,Unknown,60,2013-09-15 14:56:00
9:56 AM,52.0,48.9,89,30.22,-9999.0,ENE,9.2,-,N/A,,Unknown,70,2013-09-15 15:56:00
10:56 AM,55.0,48.9,80,30.23,-9999.0,East,5.8,-,N/A,,Unknown,80,2013-09-15 16:56:00
11:56 AM,57.9,50.0,75,30.23,-9999.0,East,10.4,-,N/A,,Unknown,100,2013-09-15 17:56:00
12:56 PM,60.1,48.9,67,30.23,-9999.0,East,9.2,17.3,N/A,,Unknown,80,2013-09-15 18:56:00
1:56 PM,63.0,48.0,58,30.21,-9999.0,East,10.4,18.4,N/A,,Unknown,90,2013-09-15 19:56:00
2:56 PM,66.0,46.0,48,30.19,-9999.0,ESE,8.1,-,N/A,,Unknown,110,2013-09-15 20:56:00
3:56 PM,66.0,46.0,48,30.18,-9999.0,ESE,11.5,18.4,N/A,,Unknown,120,2013-09-15 21:56:00
4:56 PM,66.0,46.0,48,30.17,-9999.0,ESE,12.7,-,N/A,,Unknown,120,2013-09-15 22:56:00
5:56 PM,64.9,45.0,48,30.17,-9999.0,ESE,12.7,-,N/A,,Unknown,120,2013-09-15 23:56:00
6:56 PM,60.1,45.0,57,30.17,-9999.0,ESE,11.5,-,N/A,,Unknown,110,2013-09-16 00:56:00
7:56 PM,55.9,46.0,69,30.19,-9999.0,East,10.4,-,N/A,,Unknown,100,2013-09-16 01:56:00
8:56 PM,54.0,46.9,77,30.19,-9999.0,East,12.7,-,N/A,,Unknown,100,2013-09-16 02:56:00
9:56 PM,53.1,46.0,77,30.19,-9999.0,ESE,12.7,-,N/A,,Unknown,110,2013-09-16 03:56:00
10:56 PM,53.1,46.0,77,30.18,-9999.0,SE,12.7,-,N/A,,Unknown,130,2013-09-16 04:56:00
11:56 PM,52.0,46.0,80,30.17,-9999.0,SE,11.5,-,N/A,,Unknown,130,2013-09-16 05:56:00